TimeCST,TemperatureF,Dew PointF,Humidity,Sea Level PressureIn,VisibilityMPH,Wind Direction,Wind SpeedMPH,Gust SpeedMPH,PrecipitationIn,Events,Conditions,WindDirDegrees,DateUTC
12:52 AM,19.9,14.0,78,30.35,10.0,NNE,6.9,-,N/A,,Clear,20,2013-01-14 06:52:00
1:52 AM,19.0,14.0,81,30.36,10.0,North,6.9,-,N/A,,Clear,360,2013-01-14 07:52:00
2:52 AM,21.2,15.8,80,30.35,10.0,North,9.2,-,N/A,,Scattered Clouds,360,2013-01-14 08:52:00
3:52 AM,23.0,14.0,68,30.38,10.0,North,12.7,-,N/A,,Partly Cloudy,360,2013-01-14 09:52:00
4:52 AM,24.1,14.0,65,30.36,10.0,NNE,12.7,-,N/A,,Overcast,20,2013-01-14 10:52:00
5:52 AM,24.1,15.1,69,30.36,10.0,North,11.5,-,N/A,,Overcast,10,2013-01-14 11:52:00
6:52 AM,25.0,15.1,66,30.40,10.0,North,8.1,-,N/A,,Overcast,10,2013-01-14 12:52:00
7:52 AM,25.0,15.1,66,30.42,10.0,NNE,9.2,-,N/A,,Mostly Cloudy,30,2013-01-14 13:52:00
8:52 AM,26.1,12.9,58,30.42,10.0,NE,17.3,-,N/A,,Mostly Cloudy,40,2013-01-14 14:52:00
9:52 AM,28.0,12.0,51,30.42,10.0,ENE,17.3,-,N/A,,Scattered Clouds,60,2013-01-14 15:52:00
10:52 AM,30.9,10.9,43,30.39,10.0,ENE,15.0,-,N/A,,Partly Cloudy,60,2013-01-14 16:52:00
11:52 AM,34.0,10.9,38,30.36,10.0,ENE,15.0,-,N/A,,Partly Cloudy,60,2013-01-14 17:52:00
12:52 PM,37.0,10.9,34,30.31,10.0,NE,10.4,-,N/A,,Partly Cloudy,50,2013-01-14 18:52:00
1:52 PM,39.2,10.4,31,30.25,10.0,NNE,15.0,-,N/A,,Partly Cloudy,30,2013-01-14 19:52:00
2:52 PM,41.0,10.9,29,30.26,10.0,NE,16.1,-,N/A,,Partly Cloudy,50,2013-01-14 20:52:00
3:52 PM,41.0,10.0,28,30.27,10.0,NE,10.4,-,N/A,,Partly Cloudy,50,2013-01-14 21:52:00
4:52 PM,39.9,10.0,29,30.27,10.0,NE,11.5,-,N/A,,Partly Cloudy,50,2013-01-14 22:52:00
5:52 PM,35.1,12.9,40,30.28,10.0,NE,6.9,-,N/A,,Partly Cloudy,40,2013-01-14 23:52:00
6:52 PM,28.0,15.1,58,30.30,10.0,NNE,8.1,-,N/A,,Clear,20,2013-01-15 00:52:00
7:52 PM,27.0,15.1,61,30.30,10.0,NNE,6.9,-,N/A,,Clear,20,2013-01-15 01:52:00
8:52 PM,26.1,16.0,66,30.30,10.0,North,6.9,-,N/A,,Clear,10,2013-01-15 02:52:00
9:52 PM,25.0,16.0,69,30.29,10.0,NNE,6.9,-,N/A,,Clear,30,2013-01-15 03:52:00
10:52 PM,24.1,16.0,71,30.29,10.0,NNE,4.6,-,N/A,,Clear,30,2013-01-15 04:52:00
11:52 PM,23.0,16.0,74,30.29,10.0,NNE,8.1,-,N/A,,Clear,30,2013-01-15 05:52:00